Location: Aulnoy
(48.8410°N, 3.0967°E)
Time: 23:06:43
(UTC+00:00)

Envisat - Pass Details

Date: 05 March 2024
Orbit: 762 x 764 km, 98.3° (Epoch: 12 April)

Event Time Altitude Azimuth Distance (km) Brightness Sun altitude
Rises 02:50:00 0° 18° (NNE) 3,241 6.9 -33.9°
Reaches altitude 10° 02:52:25 10° 25° (NNE) 2,310 6.1 -33.6°
Enters shadow 02:56:21 41° 67° (ENE) 1,096 4.1 -33.1°
